Startseite
Über Mich
AHP4
Galerie
Sehschlangen
Tourenbuch
Bookmarks
Elektronik
Bewertung
Geschichten
[Tagesmessung] [Jahreswerte] [Information]

Messwerte vom 26.02.2022

Die letzten Messwerte von 23:58:46 Uhr:
KategorieMesswert
Temperatur [°C]-2
Luftdruck [mBar]1020
Sonneneinstrahlung0
Wind [km/h]0 aus Nord
Niederschlag [l/m²]0
rel.Luftfeucht.94.8%
CO2 [ppm]442

Diagramme
Messwerte vom 26.02.2022
Tagesaggregation
KategorieMinimumMaximumSchnittSumme
Temperatur [°C]-2123.9542
Luftdruck [mBar]101010211015.8938
Sonneneinstrahlung24692.0729
Wind [km/h]0
rF [%]45.396.682.27
Niederschlag [l/m²]0
CO2 [ppm]393451418.0
Einordnung alsFrosttag
Vegetationstag

Messungen an benachbarten Tagen: Zur Jahresaggregation 2022
Tabelle aller Messwerte
UhrzeitTemperatur [°C]Luftdruck [mBar]SonneWind [km/h]RichtungRegen [l/m²]rF [%]CO2 [ppm]
00:01:46 2 1010 0 0 W 0 96.6 415
00:04:47 2 1010 0 0 S 0 96.6 412
00:07:48 2 1010 0 0 W 0 96.6 407
00:10:46 2 1010 0 0 SW 0 96.6 410
00:13:46 2 1010 0 0 W 0 96.6 410
00:16:48 2 1010 0 0 NW 0 96.6 413
00:19:47 2 1010 0 0 SW 0 96.6 419
00:22:45 2 1010 0 0 W 0 96.6 418
00:25:48 2 1010 0 0 S 0 96.6 416
00:28:45 2 1010 0 0 SW 0 96.6 415
00:31:44 2 1010 0 0 O 0 96.6 412
00:34:47 2 1010 0 0 NW 0 96.6 407
00:37:48 2 1010 0 0 SW 0 96.6 407
00:40:47 2 1010 0 0 W 0 96.6 418
00:43:48 2 1010 0 0 SW 0 96.6 418
00:46:47 2 1010 0 0 S 0 96.6 415
00:49:46 2 1010 0 0 W 0 96.6 412
00:52:46 2 1010 0 0 S 0 96.6 407
00:55:44 2 1010 0 0 S 0 96.6 413
00:58:47 2 1010 0 0 S 0 96.6 419
01:01:49 2 1010 0 0 S 0 96.6 418
01:04:49 2 1010 0 0 SW 0 96.6 419
01:07:46 2 1010 0 0 S 0 96.6 419
01:10:48 2 1010 0 0 W 0 96.6 416
01:13:45 2 1010 0 0 N 0 96.6 415
01:16:46 2 1010 0 0 SW 0 96.6 410
01:19:45 2 1010 0 0 SW 0 96.6 410
01:22:47 3 1010 0 0 W 0 96.6 413
01:25:46 3 1010 0 0 SW 0 96.6 415
01:28:45 2 1010 0 0 S 0 96.6 418
01:31:49 2 1010 0 0 SW 0 96.6 415
01:34:48 2 1010 0 0 NO 0 96.6 416
01:37:46 2 1010 0 0 W 0 96.6 410
01:40:47 2 1010 0 0 SW 0 96.6 413
01:43:47 2 1010 0 0 SW 0 96.6 415
01:46:46 2 1010 0 0 W 0 96.6 414
01:49:47 2 1010 0 0 SW 0 96.6 407
01:52:47 2 1010 0 0 NW 0 96.6 404
01:55:48 2 1010 0 0 NW 0 96.6 407
01:58:46 2 1010 0 0 SW 0 96.6 404
02:01:46 2 1010 0 0 SW 0 96.6 406
02:04:46 2 1010 0 0 NW 0 96.6 407
02:07:45 2 1010 0 0 W 0 96.6 407
02:10:46 2 1011 0 0 W 0 96.6 404
02:13:48 2 1010 0 0 NW 0 96.6 406
02:16:45 2 1011 0 0 S 0 96.6 403
02:19:48 2 1010 0 0 W 0 96.6 407
02:22:47 2 1011 0 0 W 0 96.6 407
02:25:46 2 1010 0 0 SW 0 96.6 404
02:28:51 2 1011 0 0 SW 0 96.6 407
02:31:45 2 1011 0 0 SW 0 96.6 409
02:34:47 2 1011 0 0 NW 0 96.6 404
02:37:47 2 1010 0 0 W 0 96.6 407
02:40:46 2 1011 0 0 SW 0 96.6 404
02:43:47 2 1011 0 0 SW 0 96.6 407
02:46:47 2 1011 0 0 SO 0 96.6 407
02:49:46 2 1012 0 0 O 0 96.6 406
02:52:46 2 1011 0 0 S 0 96.6 409
02:55:47 2 1011 0 0 W 0 96.6 413
02:58:47 2 1011 0 0 W 0 96.6 412
03:01:48 2 1011 0 0 W 0 96.6 407
03:04:45 2 1011 0 0 W 0 96.6 407
03:07:46 2 1011 0 0 SW 0 96.6 406
03:10:47 2 1012 0 0 W 0 96.6 407
03:13:48 2 1012 0 0 SO 0 96.6 412
03:16:47 2 1011 0 0 NW 0 96.6 407
03:19:48 2 1011 0 0 W 0 96.6 406
03:22:47 2 1011 0 0 SW 0 96.6 407
03:25:47 2 1012 0 0 NO 0 96.6 406
03:28:47 2 1011 0 0 SW 0 96.6 404
03:31:46 3 1011 0 0 W 0 96.6 406
03:34:47 3 1012 0 0 W 0 96.6 407
03:37:47 3 1012 0 0 W 0 96.6 406
03:40:46 3 1011 0 0 S 0 96.6 403
03:43:46 3 1012 0 0 W 0 96.6 407
03:46:44 3 1012 0 0 S 0 96.6 406
03:49:47 3 1012 0 0 SW 0 96.6 409
03:52:47 3 1012 0 0 SW 0 96.6 407
03:55:46 3 1012 0 0 SW 0 96.6 409
03:58:46 3 1012 0 0 W 0 96.6 406
04:01:48 3 1012 0 0 O 0 96.6 413
04:04:47 3 1012 0 0 SO 0 96.6 416
04:07:47 3 1013 0 0 SW 0 96.6 419
04:10:50 3 1013 0 0 NW 0 96.6 419
04:13:45 3 1013 0 0 W 0 96.6 416
04:16:48 3 1013 0 0 NW 0 96.6 415
04:19:46 3 1013 0 0 W 0 96.6 415
04:22:45 3 1013 0 0 SW 0 96.6 407
04:25:45 3 1013 0 0 W 0 96.6 407
04:28:47 3 1013 0 0 NW 0 96.6 404
04:31:47 3 1013 0 0 SO 0 96.6 404
04:34:46 3 1013 0 0 W 0 96.6 406
04:37:46 3 1013 0 0 NW 0 96.6 407
04:40:47 3 1012 0 0 W 0 96.6 413
04:43:46 3 1013 0 0 W 0 96.6 415
04:46:47 3 1013 0 0 NW 0 96.6 410
04:49:46 3 1013 0 0 NW 0 96.6 413
04:52:49 3 1013 0 0 NW 0 96.6 413
04:55:45 3 1013 0 0 W 0 96.6 407
04:58:45 3 1013 0 0 SW 0 96.6 410
05:01:47 3 1013 0 0 W 0 96.6 413
05:04:45 3 1013 0 0 W 0 96.6 416
05:07:47 3 1013 0 0 SW 0 96.6 411
05:10:46 3 1013 0 0 SW 0 96.6 410
05:13:47 3 1013 0 0 SW 0 96.6 410
05:16:47 3 1013 0 0 SW 0 96.6 405
05:19:47 3 1013 0 0 SW 0 96.6 407
05:22:47 3 1013 0 0 W 0 96.6 413
05:25:45 3 1013 0 0 W 0 96.6 418
05:28:47 3 1013 0 0 NW 0 96.6 418
05:31:46 3 1013 0 0 NW 0 96.6 415
05:34:47 3 1013 0 0 SW 0 96.6 410
05:37:50 3 1013 0 0 SW 0 96.6 409
05:40:46 3 1013 0 0 SW 0 96.6 412
05:43:45 3 1013 0 0 W 0 96.6 412
05:46:46 3 1013 0 0 W 0 96.6 407
05:49:47 3 1013 0 0 W 0 96.6 410
05:52:45 3 1013 0 0 W 0 96.6 406
05:55:47 3 1013 0 0 W 0 96.6 407
05:58:45 3 1013 0 0 W 0 96.6 407
06:01:46 3 1013 0 0 SW 0 96.6 404
06:04:49 3 1013 0 0 W 0 96.6 404
06:07:47 3 1013 0 0 O 0 96.6 407
06:10:45 3 1013 0 0 S 0 96.6 407
06:13:46 3 1013 0 0 NW 0 96.6 407
06:16:48 3 1013 0 0 W 0 96.6 407
06:19:47 3 1013 0 0 NW 0 96.6 413
06:22:47 3 1013 0 0 S 0 96.6 412
06:25:46 3 1013 0 0 SW 0 96.6 415
06:28:45 3 1013 0 0 S 0 96.6 413
06:31:46 3 1014 0 0 W 0 96.6 407
06:34:46 3 1013 0 0 W 0 96.6 407
06:37:46 3 1013 0 0 W 0 96.6 403
06:40:46 3 1013 0 0 W 0 96.6 406
06:43:47 3 1014 0 0 W 0 96.6 407
06:46:45 3 1013 0 0 S 0 96.6 407
06:49:48 3 1014 4 0 SW 0 96.6 407
06:52:45 3 1014 7 0 S 0 96.6 410
06:55:47 3 1014 12 0 SW 0 96.6 404
06:58:46 3 1014 18 0 W 0 96.6 404
07:01:49 3 1015 26 0 NW 0 96.6 404
07:04:45 3 1015 30 0 W 0 96.6 404
07:07:48 3 1014 39 0 W 0 96.6 404
07:10:46 3 1014 53 0 W 0 96.6 404
07:13:46 3 1014 62 0 W 0 96.6 406
07:16:46 3 1014 69 0 NW 0 96.6 412
07:19:47 3 1015 83 0 SW 0 96.6 412
07:22:47 3 1014 98 0 W 0 96.6 410
07:25:50 3 1014 104 0 NW 0 96.6 410
07:28:47 3 1015 109 0 W 0 96.6 410
07:31:48 3 1014 120 0 W 0 96.6 406
07:34:50 3 1015 122 0 NW 0 96.6 407
07:37:47 3 1015 115 0 W 0 96.6 404
07:40:46 3 1015 125 0 W 0 96.6 406
07:43:48 3 1015 118 0 W 0 96.6 409
07:46:48 3 1016 135 0 W 0 96.6 410
07:49:47 3 1014 137 0 W 0 96.6 407
07:52:46 3 1016 136 0 W 0 96.6 404
07:55:48 3 1015 148 0 W 0 96.6 410
07:58:48 3 1016 158 0 W 0 96.6 413
08:01:47 4 1015 154 0 W 0 96.6 410
08:04:47 4 1015 162 0 W 0 96.5 407
08:07:49 4 1016 170 0 S 0 96.4 407
08:10:47 4 1016 179 0 S 0 96.4 407
08:13:47 4 1016 179 0 W 0 96.2 404
08:16:47 3 1016 184 0 W 0 96.1 404
08:19:48 3 1016 184 0 W 0 96 410
08:22:47 3 1016 184 0 W 0 96.1 412
08:25:47 3 1016 184 0 SW 0 96.1 409
08:28:48 3 1016 186 0 NW 0 96.1 413
08:31:48 3 1016 189 0 NW 0 96.2 413
08:34:49 3 1017 189 0 NW 0 96.6 410
08:37:50 3 1016 191 0 NW 0 96.6 408
08:40:51 4 1017 193 0 NW 0 96.6 406
08:43:48 4 1017 189 0 N 0 96.3 409
08:46:50 4 1017 196 0 NW 0 96 410
08:49:48 4 1017 189 0 NW 0 95.7 407
08:52:48 4 1017 199 0 NW 0 95.4 406
08:55:47 4 1017 198 0 NW 0 94.9 407
08:58:47 4 1017 196 0 W 0 94.4 404
09:01:47 4 1017 204 0 O 0 94.5 406
09:04:46 4 1017 197 0 W 0 94.4 404
09:07:49 4 1017 203 0 SW 0 94.2 404
09:10:48 4 1017 201 0 W 0 94.1 407
09:13:47 4 1017 205 0 W 0 93.9 410
09:16:46 4 1017 210 0 NW 0 93.4 407
09:19:48 4 1017 202 0 NW 0 93.4 404
09:22:48 4 1017 196 0 NO 0 93.3 406
09:25:46 4 1017 211 0 W 0 93.1 401
09:28:45 4 1017 207 0 W 0 93 404
09:31:47 5 1017 204 0 W 0 92.9 408
09:34:48 5 1017 207 0 NW 0 92.8 405
09:37:47 5 1017 210 0 W 0 92 404
09:40:49 5 1017 208 0 SW 0 91.3 404
09:43:47 5 1017 198 0 N 0 91.1 404
09:46:47 5 1017 200 0 NW 0 91 406
09:49:48 5 1017 209 0 NW 0 90.3 403
09:52:46 5 1017 204 0 W 0 90.8 407
09:55:48 5 1017 199 0 NW 0 91 404
09:58:48 5 1017 200 0 NW 0 90.3 407
10:01:47 5 1017 209 0 N 0 90.4 407
10:04:48 5 1017 200 0 W 0 90.9 407
10:07:47 5 1017 197 0 NW 0 91.1 404
10:10:48 5 1017 200 0 NO 0 89.9 406
10:13:51 5 1017 204 0 NW 0 90.2 405
10:16:47 5 1017 208 0 W 0 90.7 406
10:19:53 5 1017 197 0 NW 0 90.2 404
10:22:46 5 1017 201 0 S 0 90.2 405
10:25:46 5 1017 204 0 S 0 90.7 393
10:28:49 5 1017 203 0 NW 0 91 403
10:31:47 5 1017 203 0 NW 0 90.8 407
10:34:47 5 1017 205 0 W 0 89.2 408
10:37:47 5 1017 208 0 W 0 89.4 407
10:40:50 5 1017 207 0 SW 0 89.4 407
10:43:48 5 1017 210 0 NW 0 85.6 415
10:46:47 5 1017 208 0 NW 0 85.3 413
10:49:47 5 1017 207 0 NW 0 86.6 427
10:52:47 5 1018 202 0 S 0 87.6 424
10:55:47 6 1017 206 0 W 0 87.8 407
10:58:47 6 1017 208 0 O 0 87.3 407
11:01:48 6 1018 207 0 NW 0 87 417
11:04:49 6 1017 207 0 NW 0 86.9 422
11:07:47 6 1017 205 0 N 0 86.5 427
11:10:49 6 1017 209 0 W 0 86.8 418
11:13:47 6 1018 212 0 W 0 86.3 424
11:16:48 6 1017 215 0 NW 0 85.7 421
11:19:48 6 1018 216 0 NO 0 85 419
11:22:47 6 1017 209 0 SO 0 84.4 415
11:25:46 6 1018 209 0 W 0 84.4 418
11:28:46 6 1017 208 0 W 0 83.5 416
11:31:50 6 1017 211 0 SW 0 84.7 420
11:34:46 6 1018 211 0 W 0 85.6 415
11:37:49 7 1018 214 0 SW 0 84.9 422
11:40:48 7 1017 212 0 NW 0 83.8 421
11:43:49 7 1018 214 0 NW 0 83.3 418
11:46:48 8 1017 220 0 S 0 82.3 416
11:49:47 8 1018 220 0 W 0 78.3 410
11:52:46 9 1018 217 0 N 0 77.4 410
11:55:47 9 1017 210 0 NW 0 75.5 412
11:58:45 9 1017 213 0 NW 0 74.1 412
12:01:47 9 1018 214 0 W 0 72.3 421
12:04:47 9 1017 214 0 NW 0 71.1 424
12:07:48 10 1018 215 0 W 0 70.3 422
12:10:47 10 1018 212 0 W 0 70.4 419
12:13:48 10 1017 212 0 NW 0 63.5 418
12:16:47 10 1018 216 0 S 0 64.3 419
12:19:48 10 1018 214 0 W 0 67.3 418
12:22:52 9 1018 216 0 W 0 63.7 419
12:25:46 9 1018 219 0 S 0 67.7 421
12:28:48 10 1017 220 0 NO 0 64 418
12:31:49 10 1018 212 0 N 0 66.1 413
12:34:47 11 1018 215 0 W 0 64.6 415
12:37:48 11 1018 215 0 NO 0 62.5 416
12:40:46 11 1018 216 0 N 0 61.9 421
12:43:45 11 1017 214 0 O 0 64.6 421
12:46:48 12 1017 215 0 O 0 62.5 415
12:49:48 12 1018 218 0 NW 0 55.5 413
12:52:48 12 1018 220 0 S 0 56 415
12:55:47 12 1017 223 0 NW 0 54.4 418
12:58:48 11 1017 226 0 W 0 53.2 422
13:01:49 11 1018 225 0 SW 0 60.9 415
13:04:46 11 1017 225 0 O 0 58.7 415
13:07:49 11 1018 224 0 S 0 57.1 413
13:10:48 11 1017 229 0 W 0 59.8 418
13:13:47 11 1018 221 0 W 0 54.6 421
13:16:50 11 1017 222 0 NW 0 56.1 416
13:19:49 11 1017 228 0 SW 0 56.1 416
13:22:47 10 1017 228 0 N 0 55 415
13:25:49 10 1018 229 0 W 0 57.7 418
13:28:48 11 1017 229 0 NW 0 58.3 422
13:31:49 11 1018 229 0 NW 0 55.4 425
13:34:47 11 1017 229 0 O 0 54.8 421
13:37:46 11 1017 231 0 W 0 57.2 416
13:40:48 12 1018 229 0 SO 0 58.1 409
13:43:48 12 1017 230 0 NW 0 55.1 406
13:46:47 11 1017 229 0 NW 0 50.1 404
13:49:46 11 1017 231 0 S 0 53.6 410
13:52:48 11 1017 232 0 NW 0 52.8 409
13:55:48 11 1017 234 0 NW 0 52.4 404
13:58:49 11 1018 235 0 W 0 48.5 409
14:01:46 10 1017 235 0 N 0 48.4 415
14:04:47 10 1017 237 0 NW 0 50.1 416
14:07:48 10 1017 243 0 N 0 49.8 418
14:10:47 10 1017 243 0 N 0 52 418
14:13:48 11 1017 243 0 W 0 52.2 410
14:16:49 11 1017 243 0 SW 0 52.2 410
14:19:50 11 1017 244 0 NW 0 49.2 412
14:22:47 11 1017 244 0 NW 0 49.2 412
14:25:48 11 1017 244 0 N 0 50.7 416
14:28:48 10 1017 244 0 N 0 48.8 419
14:31:46 10 1017 245 0 W 0 48.4 427
14:34:46 10 1017 245 0 N 0 49.1 419
14:37:52 10 1017 245 0 NW 0 49.9 424
14:40:49 10 1017 245 0 N 0 49.4 421
14:43:49 10 1017 245 0 NW 0 48.3 424
14:46:49 10 1017 245 0 SW 0 48.1 425
14:49:49 10 1017 245 0 SW 0 47.2 424
14:52:50 10 1017 245 0 NW 0 47.5 422
14:55:48 10 1017 246 0 N 0 46.2 418
14:58:46 10 1017 246 0 NO 0 46.9 424
15:01:46 10 1017 246 0 NO 0 47.8 421
15:04:49 10 1017 246 0 N 0 46.7 430
15:07:46 10 1017 246 0 N 0 46.1 424
15:10:47 10 1017 246 0 O 0 45.3 424
15:13:46 10 1017 246 0 W 0 46.8 424
15:16:47 10 1017 246 0 NO 0 47.2 430
15:19:47 9 1017 245 0 NW 0 47.6 430
15:22:45 9 1017 244 0 N 0 47.9 424
15:25:47 9 1017 243 0 NO 0 49 424
15:28:46 9 1017 236 0 N 0 49.3 427
15:31:49 9 1017 233 0 NW 0 48.5 424
15:34:49 9 1017 232 0 NW 0 48.6 430
15:37:50 9 1017 229 0 NW 0 49.2 423
15:40:49 9 1017 231 0 NW 0 49.8 428
15:43:48 9 1017 228 0 NW 0 49 428
15:46:49 9 1017 217 0 N 0 49.4 434
15:49:49 9 1017 222 0 NO 0 48.8 427
15:52:47 8 1017 226 0 NW 0 48.5 418
15:55:48 8 1017 218 0 NW 0 48.6 419
15:58:46 8 1017 213 0 O 0 47.4 421
16:01:46 8 1017 218 0 N 0 47.2 416
16:04:46 8 1017 213 0 N 0 48.1 419
16:07:48 8 1017 211 0 N 0 48.7 419
16:10:46 8 1017 218 0 N 0 48.9 419
16:13:48 8 1018 216 0 N 0 49.6 422
16:16:45 8 1017 211 0 N 0 50.6 416
16:19:47 8 1017 220 0 N 0 50 424
16:22:45 8 1017 224 0 N 0 49.5 422
16:25:45 8 1017 211 0 N 0 48.6 416
16:28:48 8 1017 205 0 N 0 49 418
16:31:47 8 1017 212 0 O 0 49 422
16:34:46 8 1017 206 0 N 0 48.2 416
16:37:49 8 1017 219 0 N 0 49 418
16:40:47 8 1017 235 0 NW 0 49.3 422
16:43:48 8 1017 227 0 W 0 49.1 427
16:46:46 8 1017 212 0 O 0 49.5 425
16:49:50 8 1017 208 0 NO 0 49.9 421
16:52:48 8 1017 209 0 NO 0 50.4 430
16:55:45 7 1017 197 0 N 0 51 427
16:58:48 7 1017 195 0 NW 0 53.2 427
17:01:45 7 1017 194 0 O 0 54.7 418
17:04:45 7 1017 193 0 N 0 55.7 415
17:07:47 7 1017 191 0 NO 0 56.3 419
17:10:47 7 1017 190 0 O 0 57.3 415
17:13:47 7 1017 188 0 N 0 57.8 410
17:16:47 7 1017 185 0 N 0 58.1 410
17:19:46 7 1017 183 0 N 0 58.2 418
17:22:46 7 1017 180 0 NO 0 58.7 427
17:25:48 6 1017 176 0 NO 0 59.4 418
17:28:49 6 1017 172 0 NO 0 60.1 415
17:31:47 6 1017 168 0 N 0 60.6 418
17:34:44 6 1018 163 0 O 0 60.9 419
17:37:46 6 1017 157 0 S 0 61.3 424
17:40:46 6 1017 148 0 O 0 61.7 427
17:43:46 6 1017 140 0 N 0 62.1 430
17:46:46 6 1017 130 0 SO 0 62.4 424
17:49:46 5 1017 119 0 SO 0 62.7 418
17:52:47 5 1017 106 0 SO 0 63.1 413
17:55:45 5 1017 91 0 SO 0 63.6 421
17:58:47 5 1017 76 0 SO 0 64.3 428
18:01:47 4 1017 60 0 SO 0 64.8 427
18:04:48 4 1017 45 0 SO 0 66 421
18:07:47 4 1017 33 0 SO 0 66.7 413
18:10:46 4 1017 24 0 SO 0 67.6 418
18:13:48 3 1017 15 0 SO 0 68.6 424
18:16:47 3 1017 9 0 SO 0 69.1 424
18:19:48 3 1018 5 0 SO 0 70.1 424
18:22:46 3 1018 3 0 SO 0 70.6 424
18:25:48 3 1018 0 0 SO 0 71.8 422
18:28:49 3 1018 0 0 SO 0 72.2 424
18:31:47 3 1019 0 0 SO 0 72.5 413
18:34:46 3 1017 0 0 SO 0 72.5 409
18:37:46 3 1018 0 0 SO 0 72.5 410
18:40:46 2 1018 0 0 SO 0 73.1 407
18:43:47 2 1018 0 0 SO 0 73.8 410
18:46:48 2 1018 0 0 SO 0 74.4 418
18:49:46 2 1018 0 0 NW 0 75.1 415
18:52:46 2 1018 0 0 SO 0 76.3 421
18:55:47 2 1018 0 0 NW 0 76.5 422
18:58:44 2 1019 0 0 O 0 76.9 422
19:01:45 2 1018 0 0 O 0 76.6 422
19:04:46 2 1018 0 0 O 0 77.1 416
19:07:45 2 1018 0 0 O 0 77.4 421
19:10:47 2 1019 0 0 O 0 77.8 424
19:13:45 2 1018 0 0 O 0 78.2 424
19:16:47 2 1018 0 0 O 0 78.4 424
19:19:47 1 1018 0 0 N 0 78.8 428
19:22:47 1 1018 0 0 N 0 80.2 424
19:25:45 1 1018 0 0 O 0 80.7 427
19:28:46 1 1018 0 0 O 0 80.9 424
19:31:46 1 1019 0 0 O 0 81.1 428
19:34:45 1 1019 0 0 O 0 81.3 433
19:37:46 1 1019 0 0 O 0 81.8 428
19:40:46 1 1019 0 0 O 0 82.3 425
19:43:45 1 1018 0 0 O 0 82.3 433
19:46:45 1 1019 0 0 O 0 82.2 433
19:49:46 1 1019 0 0 O 0 82.6 422
19:52:46 1 1018 0 0 O 0 83.3 425
19:55:45 1 1019 0 0 O 0 83.1 430
19:58:45 0 1018 0 0 O 0 83.2 426
20:01:45 0 1019 0 0 O 0 83.2 433
20:04:46 0 1019 0 0 O 0 83.3 434
20:07:47 0 1019 0 0 O 0 83.9 424
20:10:47 0 1019 0 0 O 0 84.2 421
20:13:48 0 1019 0 0 O 0 84.4 418
20:16:45 0 1019 0 0 O 0 84.4 424
20:19:45 0 1019 0 0 O 0 84.5 430
20:22:46 0 1019 0 0 O 0 85.1 436
20:25:46 0 1019 0 0 O 0 85 442
20:28:46 0 1019 0 0 O 0 85.2 448
20:31:49 0 1019 0 0 O 0 85.2 445
20:34:47 0 1019 0 0 O 0 85.7 441
20:37:47 0 1018 0 0 O 0 86 433
20:40:47 0 1019 0 0 O 0 86.4 433
20:43:45 -1 1019 0 0 O 0 86.4 430
20:46:47 -1 1019 0 0 O 0 86.6 433
20:49:47 -1 1019 0 0 SO 0 86.8 436
20:52:48 -1 1019 0 0 SO 0 87.5 438
20:55:49 -1 1019 0 0 SO 0 87.6 445
20:58:47 -1 1019 0 0 SO 0 87.7 447
21:01:46 -1 1020 0 0 SO 0 87.9 442
21:04:49 -1 1019 0 0 SO 0 89.1 433
21:07:47 0 1020 0 0 N 0 89.6 436
21:10:46 -1 1019 0 0 S 0 89.8 431
21:13:47 -1 1019 0 0 S 0 89.5 435
21:16:48 -1 1020 0 0 S 0 89.4 439
21:19:46 -1 1020 0 0 S 0 89.5 442
21:22:45 -1 1019 0 0 S 0 89.6 441
21:25:47 -1 1020 0 0 SO 0 89.6 436
21:28:47 -1 1019 0 0 SO 0 89.8 436
21:31:48 -1 1019 0 0 SO 0 89.9 433
21:34:49 -1 1019 0 0 SO 0 89.9 439
21:37:47 -1 1019 0 0 SO 0 90 439
21:40:48 -1 1020 0 0 SO 0 90 443
21:43:47 -1 1020 0 0 SO 0 90.3 451
21:46:49 -1 1019 0 0 NW 0 90.7 448
21:49:49 -1 1020 0 0 NW 0 91 445
21:52:46 -1 1020 0 0 SO 0 91.1 445
21:55:45 -1 1019 0 0 N 0 91.2 444
21:58:46 -1 1019 0 0 NO 0 92.3 445
22:01:47 -1 1020 0 0 SO 0 93.8 445
22:04:49 -1 1019 0 0 NW 0 92.9 435
22:07:46 -1 1020 0 0 N 0 92.8 436
22:10:47 -1 1020 0 0 N 0 92.8 438
22:13:48 -1 1020 0 0 S 0 92.5 433
22:16:48 -1 1020 0 0 O 0 92.7 435
22:19:46 -1 1020 0 0 O 0 93.3 439
22:22:46 -1 1020 0 0 N 0 93 439
22:25:46 -1 1020 0 0 N 0 92.7 442
22:28:45 -1 1020 0 0 N 0 92.5 446
22:31:46 -2 1020 0 0 O 0 92.5 442
22:34:45 -2 1019 0 0 O 0 93 439
22:37:48 -2 1020 0 0 SO 0 93 433
22:40:46 -2 1020 0 0 N 0 93.1 433
22:43:47 -2 1020 0 0 N 0 93.3 430
22:46:47 -2 1020 0 0 N 0 93.3 438
22:49:47 -2 1020 0 0 NO 0 93.2 436
22:52:47 -2 1021 0 0 NO 0 93.2 433
22:55:46 -2 1019 0 0 O 0 93.1 442
22:58:46 -2 1020 0 0 N 0 93.1 444
23:01:45 -2 1020 0 0 O 0 93.2 439
23:04:46 -2 1020 0 0 O 0 93.4 442
23:07:47 -2 1019 0 0 O 0 93.3 446
23:10:46 -2 1020 0 0 O 0 93.4 439
23:13:46 -2 1020 0 0 O 0 93.4 442
23:16:47 -2 1020 0 0 O 0 93.3 448
23:19:47 -2 1020 0 0 N 0 93.4 446
23:22:49 -2 1020 0 0 SO 0 93.8 442
23:25:48 -2 1020 0 0 SO 0 93.9 438
23:28:46 -2 1020 0 0 SO 0 93.9 433
23:31:48 -2 1020 0 0 N 0 94.4 441
23:34:47 -2 1020 0 0 N 0 94.7 445
23:37:47 -2 1020 0 0 N 0 94.5 442
23:40:45 -2 1020 0 0 NO 0 94.6 439
23:43:48 -2 1020 0 0 NO 0 94.6 442
23:46:45 -2 1020 0 0 N 0 94.4 439
23:49:46 -2 1020 0 0 N 0 94.8 445
23:52:46 -2 1020 0 0 N 0 94.7 442
23:55:47 -2 1020 0 0 N 0 94.7 451
23:58:46 -2 1020 0 0 N 0 94.8 442

Letzte Änderung : 22-Jul-2022
Copyright Jens Köhler, Wolfsburg, Obere Dorfstraße 10d